Precipitable_Water
0.70 0.60 0.56 0.54 0.54 0.55 0.58 0.57 0.56 0.56 0.55 0.52 0.49 0.48 0.45 0.44 0.45 0.53 0.56 0.63 0.68 0.61 0.59 0.61 0.61 0.62 0.65 0.70 0.75 0.78 0.80 0.79 0.79 0.79 0.82 0.87 0.86 0.86 0.84 0.86 0.87 0.87 0.87 0.88 0.83 0.81 0.79 0.78 0.78 0.74 0.66 0.56 0.51 0.45 0.42 0.38 0.37 0.37 0.35 0.35 0.33 0.37 0.39 0.37 0.35 0.35 0.33 0.30 0.31 0.34 0.31 0.35 0.35 0.36 0.41 0.41 0.42 0.46 0.48 0.49 0.50 0.49 0.47 0.45 0.46 0.45
0.66 0.57 0.53 0.53 0.56 0.57 0.57 0.59 0.59 0.56 0.55 0.52 0.48 0.45 0.43 0.47 0.43 0.52 0.53 0.61 0.68 0.59 0.50 0.59 0.57 0.57 0.61 0.67 0.71 0.75 0.75 0.71 0.76 0.78 0.82 0.81 0.82 0.82 0.82 0.81 0.82 0.83 0.87 0.86 0.80 0.77 0.78 0.78 0.78 0.72 0.65 0.56 0.47 0.42 0.41 0.39 0.38 0.38 0.38 0.36 0.35 0.37 0.39 0.37 0.36 0.34 0.32 0.31 0.29 0.30 0.28 0.35 0.36 0.35 0.36 0.39 0.44 0.48 0.50 0.49 0.48 0.48 0.48 0.47 0.48 0.45
0.57 0.53 0.55 0.58 0.61 0.62 0.61 0.60 0.61 0.57 0.52 0.53 0.48 0.47 0.46 0.45 0.49 0.55 0.56 0.63 0.63 0.61 0.50 0.58 0.54 0.55 0.60 0.65 0.69 0.71 0.74 0.76 0.80 0.80 0.79 0.78 0.76 0.79 0.78 0.76 0.77 0.78 0.79 0.83 0.76 0.75 0.76 0.77 0.74 0.70 0.62 0.56 0.48 0.43 0.41 0.41 0.40 0.39 0.37 0.36 0.36 0.36 0.37 0.36 0.36 0.35 0.32 0.35 0.36 0.36 0.35 0.35 0.38 0.45 0.46 0.47 0.46 0.48 0.48 0.49 0.49 0.49 0.49 0.46 0.43 0.39
0.50 0.48 0.57 0.63 0.64 0.61 0.60 0.61 0.59 0.57 0.58 0.53 0.48 0.49 0.42 0.46 0.51 0.41 0.52 0.57 0.59 0.60 0.51 0.55 0.52 0.52 0.60 0.64 0.67 0.72 0.73 0.75 0.77 0.78 0.77 0.77 0.74 0.74 0.75 0.74 0.75 0.75 0.77 0.77 0.74 0.71 0.75 0.76 0.73 0.68 0.63 0.56 0.48 0.43 0.42 0.41 0.40 0.39 0.38 0.37 0.36 0.35 0.36 0.35 0.36 0.38 0.37 0.39 0.42 0.46 0.44 0.45 0.44 0.39 0.43 0.45 0.46 0.49 0.49 0.48 0.50 0.49 0.48 0.44 0.39 0.38
0.52 0.57 0.65 0.64 0.64 0.62 0.58 0.60 0.59 0.57 0.51 0.54 0.54 0.48 0.43 0.46 0.50 0.50 0.46 0.56 0.57 0.56 0.60 0.56 0.52 0.48 0.52 0.53 0.56 0.63 0.72 0.71 0.71 0.71 0.71 0.75 0.76 0.77 0.78 0.76 0.79 0.75 0.76 0.76 0.74 0.73 0.75 0.73 0.70 0.67 0.63 0.56 0.46 0.42 0.42 0.41 0.39 0.38 0.37 0.37 0.36 0.35 0.35 0.36 0.35 0.39 0.39 0.38 0.38 0.41 0.42 0.42 0.43 0.43 0.40 0.43 0.45 0.46 0.48 0.48 0.47 0.47 0.47 0.45 0.40 0.40
0.55 0.63 0.67 0.62 0.62 0.61 0.60 0.58 0.59 0.59 0.50 0.50 0.54 0.57 0.52 0.52 0.49 0.52 0.55 0.58 0.55 0.48 0.55 0.57 0.43 0.38 0.43 0.48 0.52 0.59 0.60 0.61 0.66 0.65 0.62 0.66 0.67 0.70 0.70 0.74 0.78 0.79 0.82 0.79 0.74 0.73 0.74 0.72 0.71 0.68 0.65 0.54 0.46 0.43 0.43 0.43 0.41 0.39 0.37 0.35 0.35 0.35 0.35 0.36 0.35 0.37 0.39 0.36 0.35 0.35 0.32 0.30 0.32 0.34 0.36 0.37 0.38 0.41 0.43 0.43 0.47 0.48 0.47 0.44 0.41 0.41
0.55 0.63 0.64 0.60 0.60 0.59 0.61 0.60 0.60 0.63 0.52 0.51 0.47 0.60 0.57 0.56 0.54 0.52 0.52 0.56 0.44 0.39 0.44 0.52 0.40 0.31 0.40 0.42 0.45 0.51 0.54 0.55 0.59 0.59 0.61 0.63 0.64 0.66 0.71 0.73 0.72 0.72 0.78 0.80 0.77 0.76 0.73 0.73 0.70 0.69 0.65 0.54 0.46 0.44 0.46 0.44 0.42 0.40 0.37 0.35 0.34 0.35 0.35 0.36 0.37 0.37 0.38 0.36 0.37 0.35 0.35 0.35 0.34 0.34 0.38 0.43 0.45 0.44 0.45 0.46 0.45 0.46 0.45 0.42 0.41 0.41
0.58 0.57 0.61 0.62 0.60 0.58 0.57 0.56 0.59 0.62 0.56 0.48 0.57 0.62 0.60 0.56 0.52 0.51 0.51 0.49 0.43 0.46 0.46 0.48 0.41 0.39 0.36 0.38 0.46 0.49 0.49 0.51 0.52 0.53 0.57 0.59 0.60 0.63 0.67 0.70 0.70 0.72 0.74 0.74 0.75 0.75 0.75 0.74 0.72 0.68 0.65 0.56 0.48 0.46 0.46 0.43 0.42 0.39 0.35 0.34 0.34 0.36 0.37 0.38 0.38 0.38 0.38 0.37 0.36 0.36 0.36 0.36 0.35 0.37 0.39 0.43 0.44 0.47 0.46 0.44 0.44 0.45 0.43 0.42 0.42 0.41
0.57 0.53 0.56 0.57 0.59 0.58 0.57 0.60 0.62 0.63 0.58 0.54 0.61 0.62 0.59 0.58 0.54 0.53 0.51 0.47 0.45 0.46 0.43 0.42 0.45 0.42 0.31 0.37 0.45 0.47 0.43 0.45 0.47 0.51 0.53 0.58 0.60 0.61 0.65 0.69 0.71 0.73 0.77 0.77 0.75 0.76 0.75 0.74 0.72 0.71 0.65 0.56 0.51 0.48 0.43 0.41 0.41 0.38 0.35 0.34 0.35 0.36 0.37 0.37 0.38 0.38 0.38 0.38 0.37 0.37 0.36 0.36 0.38 0.42 0.43 0.45 0.45 0.44 0.45 0.43 0.43 0.42 0.41 0.41 0.43 0.43
0.56 0.60 0.58 0.60 0.58 0.56 0.60 0.63 0.66 0.64 0.55 0.59 0.66 0.66 0.63 0.62 0.57 0.54 0.50 0.48 0.48 0.45 0.34 0.36 0.41 0.39 0.33 0.36 0.38 0.44 0.40 0.43 0.46 0.51 0.54 0.57 0.58 0.61 0.64 0.69 0.73 0.74 0.77 0.76 0.77 0.76 0.76 0.75 0.75 0.73 0.67 0.56 0.51 0.48 0.45 0.45 0.41 0.37 0.36 0.34 0.33 0.35 0.37 0.37 0.37 0.38 0.38 0.38 0.38 0.36 0.37 0.37 0.39 0.43 0.44 0.45 0.43 0.43 0.43 0.41 0.41 0.41 0.40 0.39 0.40 0.40
0.54 0.63 0.67 0.61 0.57 0.61 0.62 0.66 0.67 0.64 0.64 0.67 0.66 0.59 0.57 0.57 0.55 0.54 0.52 0.49 0.45 0.34 0.34 0.39 0.39 0.36 0.30 0.32 0.39 0.33 0.38 0.41 0.47 0.50 0.55 0.57 0.59 0.62 0.65 0.69 0.71 0.72 0.74 0.75 0.74 0.75 0.76 0.77 0.76 0.72 0.63 0.55 0.50 0.48 0.46 0.43 0.39 0.36 0.34 0.34 0.34 0.36 0.37 0.37 0.37 0.37 0.36 0.37 0.37 0.37 0.40 0.40 0.40 0.42 0.42 0.41 0.40 0.41 0.41 0.40 0.39 0.39 0.40 0.40 0.39 0.40
0.48 0.53 0.55 0.60 0.66 0.66 0.67 0.61 0.69 0.70 0.67 0.64 0.58 0.56 0.52 0.51 0.54 0.49 0.49 0.51 0.39 0.29 0.34 0.40 0.40 0.38 0.33 0.35 0.36 0.40 0.42 0.44 0.46 0.45 0.48 0.51 0.56 0.60 0.63 0.68 0.71 0.71 0.72 0.72 0.73 0.74 0.73 0.74 0.72 0.70 0.61 0.55 0.50 0.48 0.46 0.42 0.39 0.34 0.33 0.35 0.35 0.35 0.36 0.36 0.37 0.37 0.36 0.37 0.37 0.39 0.42 0.42 0.42 0.41 0.40 0.39 0.38 0.39 0.38 0.38 0.38 0.39 0.38 0.38 0.39 0.40
0.44 0.47 0.54 0.56 0.65 0.65 0.59 0.60 0.61 0.65 0.66 0.61 0.57 0.53 0.46 0.38 0.41 0.32 0.39 0.31 0.30 0.27 0.36 0.40 0.42 0.42 0.37 0.37 0.40 0.39 0.43 0.44 0.48 0.52 0.50 0.52 0.55 0.60 0.63 0.66 0.69 0.71 0.70 0.70 0.72 0.73 0.72 0.70 0.69 0.66 0.59 0.55 0.50 0.47 0.44 0.41 0.38 0.34 0.34 0.35 0.35 0.34 0.36 0.36 0.36 0.36 0.37 0.37 0.38 0.39 0.42 0.43 0.43 0.42 0.41 0.41 0.39 0.39 0.38 0.39 0.38 0.38 0.36 0.38 0.38 0.40
0.43 0.48 0.47 0.51 0.57 0.63 0.62 0.52 0.53 0.52 0.57 0.56 0.52 0.48 0.44 0.33 0.30 0.28 0.30 0.32 0.37 0.38 0.42 0.43 0.45 0.37 0.40 0.40 0.44 0.44 0.47 0.50 0.50 0.54 0.57 0.57 0.57 0.59 0.63 0.66 0.68 0.68 0.69 0.70 0.73 0.73 0.71 0.70 0.70 0.67 0.59 0.55 0.51 0.48 0.45 0.42 0.38 0.35 0.34 0.36 0.35 0.34 0.36 0.35 0.35 0.36 0.37 0.38 0.39 0.41 0.42 0.42 0.43 0.42 0.42 0.40 0.40 0.40 0.41 0.40 0.40 0.40 0.39 0.39 0.40 0.40
0.29 0.33 0.40 0.45 0.41 0.58 0.58 0.58 0.57 0.53 0.54 0.54 0.58 0.51 0.45 0.38 0.33 0.29 0.27 0.28 0.29 0.33 0.39 0.43 0.42 0.30 0.37 0.41 0.48 0.52 0.53 0.54 0.55 0.56 0.62 0.63 0.64 0.64 0.66 0.68 0.69 0.68 0.70 0.73 0.72 0.72 0.70 0.71 0.70 0.65 0.59 0.56 0.51 0.48 0.45 0.41 0.37 0.35 0.34 0.34 0.33 0.33 0.34 0.34 0.34 0.37 0.37 0.38 0.39 0.41 0.43 0.43 0.43 0.41 0.41 0.40 0.42 0.41 0.39 0.40 0.40 0.40 0.41 0.40 0.41 0.41
0.29 0.33 0.44 0.49 0.53 0.56 0.52 0.60 0.63 0.55 0.52 0.57 0.56 0.55 0.44 0.42 0.42 0.33 0.34 0.34 0.32 0.33 0.36 0.38 0.34 0.38 0.41 0.50 0.53 0.56 0.56 0.54 0.57 0.58 0.62 0.64 0.67 0.65 0.65 0.65 0.66 0.67 0.70 0.72 0.72 0.72 0.72 0.72 0.70 0.65 0.60 0.56 0.52 0.49 0.46 0.42 0.39 0.36 0.36 0.36 0.35 0.33 0.33 0.33 0.34 0.36 0.37 0.38 0.40 0.41 0.41 0.42 0.42 0.41 0.41 0.42 0.42 0.42 0.41 0.41 0.41 0.41 0.41 0.40 0.43 0.44
0.28 0.29 0.38 0.45 0.49 0.52 0.53 0.58 0.58 0.58 0.41 0.51 0.49 0.42 0.43 0.49 0.44 0.39 0.42 0.43 0.44 0.40 0.29 0.38 0.40 0.45 0.50 0.49 0.52 0.53 0.52 0.53 0.56 0.57 0.61 0.64 0.66 0.64 0.63 0.66 0.66 0.67 0.69 0.71 0.74 0.74 0.73 0.72 0.70 0.65 0.60 0.57 0.53 0.50 0.46 0.42 0.39 0.37 0.36 0.35 0.32 0.32 0.33 0.33 0.35 0.36 0.38 0.38 0.38 0.39 0.41 0.41 0.41 0.41 0.41 0.41 0.41 0.41 0.43 0.43 0.43 0.42 0.41 0.43 0.44 0.44
0.28 0.33 0.38 0.38 0.38 0.49 0.57 0.58 0.58 0.58 0.55 0.50 0.43 0.47 0.51 0.52 0.49 0.40 0.32 0.35 0.33 0.27 0.29 0.39 0.31 0.33 0.35 0.33 0.49 0.47 0.49 0.52 0.52 0.56 0.61 0.64 0.65 0.61 0.64 0.66 0.68 0.68 0.71 0.74 0.77 0.78 0.76 0.73 0.70 0.65 0.62 0.58 0.54 0.50 0.46 0.42 0.40 0.38 0.36 0.33 0.32 0.31 0.30 0.33 0.35 0.36 0.36 0.36 0.37 0.38 0.39 0.41 0.41 0.41 0.41 0.41 0.41 0.42 0.42 0.42 0.42 0.42 0.40 0.43 0.44 0.45
0.30 0.28 0.35 0.38 0.43 0.48 0.54 0.53 0.50 0.54 0.57 0.49 0.48 0.54 0.42 0.37 0.39 0.44 0.38 0.27 0.27 0.26 0.29 0.33 0.36 0.38 0.35 0.41 0.48 0.44 0.45 0.50 0.52 0.57 0.59 0.61 0.61 0.60 0.64 0.67 0.70 0.73 0.73 0.74 0.76 0.77 0.77 0.73 0.70 0.65 0.62 0.60 0.56 0.51 0.47 0.43 0.41 0.37 0.35 0.34 0.34 0.31 0.33 0.34 0.35 0.36 0.36 0.37 0.37 0.38 0.39 0.39 0.40 0.41 0.41 0.42 0.43 0.42 0.40 0.40 0.41 0.41 0.42 0.45 0.45 0.45
0.32 0.27 0.33 0.40 0.41 0.47 0.49 0.46 0.35 0.42 0.49 0.52 0.52 0.46 0.47 0.40 0.37 0.36 0.40 0.34 0.37 0.28 0.27 0.28 0.33 0.32 0.39 0.39 0.42 0.44 0.47 0.51 0.53 0.56 0.58 0.61 0.61 0.61 0.63 0.66 0.69 0.71 0.73 0.76 0.79 0.78 0.79 0.76 0.71 0.66 0.63 0.59 0.55 0.50 0.47 0.43 0.40 0.37 0.37 0.36 0.35 0.35 0.35 0.35 0.35 0.35 0.34 0.35 0.36 0.37 0.39 0.40 0.40 0.41 0.41 0.41 0.41 0.41 0.40 0.41 0.41 0.42 0.43 0.45 0.46 0.46
0.32 0.31 0.25 0.38 0.43 0.42 0.36 0.41 0.38 0.42 0.39 0.40 0.40 0.40 0.41 0.40 0.45 0.38 0.39 0.36 0.32 0.29 0.29 0.27 0.27 0.33 0.41 0.45 0.44 0.45 0.48 0.52 0.53 0.54 0.59 0.62 0.63 0.64 0.67 0.68 0.70 0.73 0.75 0.79 0.81 0.82 0.81 0.77 0.72 0.68 0.65 0.60 0.56 0.51 0.47 0.43 0.39 0.36 0.35 0.33 0.33 0.33 0.33 0.33 0.35 0.34 0.34 0.36 0.36 0.37 0.37 0.39 0.40 0.40 0.41 0.41 0.41 0.40 0.40 0.42 0.43 0.44 0.44 0.46 0.47 0.48
0.29 0.30 0.25 0.33 0.33 0.32 0.38 0.47 0.44 0.44 0.46 0.43 0.41 0.39 0.40 0.38 0.37 0.33 0.31 0.43 0.37 0.33 0.30 0.28 0.27 0.34 0.43 0.51 0.50 0.49 0.52 0.54 0.55 0.56 0.59 0.63 0.65 0.65 0.68 0.71 0.74 0.75 0.79 0.83 0.85 0.86 0.83 0.77 0.74 0.69 0.63 0.61 0.56 0.49 0.44 0.41 0.38 0.34 0.33 0.32 0.32 0.31 0.32 0.33 0.33 0.34 0.35 0.36 0.37 0.37 0.38 0.38 0.40 0.40 0.41 0.40 0.39 0.39 0.40 0.41 0.43 0.44 0.44 0.44 0.47 0.48
0.37 0.35 0.32 0.28 0.32 0.35 0.38 0.40 0.44 0.45 0.46 0.45 0.43 0.41 0.43 0.40 0.38 0.35 0.28 0.37 0.38 0.38 0.35 0.35 0.29 0.34 0.48 0.55 0.54 0.51 0.54 0.56 0.56 0.57 0.58 0.62 0.65 0.66 0.69 0.73 0.77 0.82 0.83 0.86 0.88 0.89 0.85 0.79 0.75 0.68 0.63 0.60 0.56 0.49 0.45 0.41 0.37 0.34 0.33 0.32 0.31 0.31 0.31 0.32 0.33 0.35 0.35 0.35 0.36 0.36 0.38 0.38 0.38 0.39 0.39 0.38 0.38 0.38 0.39 0.41 0.43 0.44 0.43 0.43 0.46 0.49
0.36 0.29 0.28 0.28 0.34 0.36 0.38 0.40 0.42 0.41 0.41 0.38 0.39 0.40 0.40 0.36 0.39 0.37 0.37 0.41 0.33 0.34 0.34 0.34 0.31 0.37 0.50 0.55 0.56 0.55 0.58 0.58 0.58 0.58 0.58 0.61 0.65 0.67 0.70 0.74 0.77 0.80 0.86 0.89 0.91 0.90 0.86 0.81 0.77 0.69 0.63 0.59 0.56 0.50 0.45 0.41 0.37 0.34 0.33 0.31 0.31 0.30 0.32 0.33 0.34 0.35 0.35 0.35 0.35 0.36 0.37 0.37 0.38 0.38 0.38 0.37 0.38 0.38 0.39 0.41 0.42 0.43 0.43 0.44 0.46 0.47
0.28 0.34 0.30 0.27 0.27 0.31 0.32 0.33 0.35 0.39 0.39 0.37 0.37 0.41 0.38 0.38 0.39 0.41 0.41 0.43 0.31 0.32 0.33 0.30 0.25 0.32 0.50 0.53 0.54 0.57 0.56 0.56 0.57 0.60 0.61 0.60 0.65 0.68 0.71 0.75 0.79 0.83 0.86 0.88 0.89 0.89 0.87 0.82 0.75 0.68 0.63 0.59 0.56 0.50 0.46 0.41 0.37 0.34 0.33 0.32 0.31 0.31 0.33 0.33 0.34 0.34 0.35 0.35 0.34 0.35 0.35 0.36 0.36 0.37 0.37 0.37 0.38 0.38 0.40 0.40 0.41 0.42 0.42 0.43 0.44 0.46
0.31 0.33 0.28 0.24 0.22 0.22 0.22 0.24 0.27 0.32 0.32 0.36 0.37 0.38 0.39 0.36 0.38 0.37 0.32 0.37 0.30 0.33 0.34 0.31 0.30 0.37 0.48 0.52 0.54 0.54 0.56 0.55 0.60 0.62 0.64 0.65 0.65 0.66 0.70 0.75 0.79 0.83 0.85 0.87 0.89 0.88 0.85 0.83 0.77 0.70 0.63 0.58 0.55 0.49 0.46 0.42 0.37 0.34 0.32 0.31 0.32 0.31 0.33 0.33 0.34 0.34 0.34 0.35 0.34 0.33 0.34 0.34 0.35 0.35 0.36 0.37 0.38 0.38 0.39 0.40 0.40 0.40 0.42 0.43 0.43 0.45
0.34 0.39 0.33 0.29 0.27 0.26 0.29 0.33 0.35 0.34 0.37 0.30 0.35 0.33 0.35 0.37 0.39 0.40 0.38 0.34 0.31 0.36 0.34 0.35 0.34 0.36 0.40 0.48 0.53 0.52 0.55 0.55 0.55 0.60 0.60 0.63 0.66 0.68 0.72 0.76 0.80 0.84 0.86 0.86 0.88 0.89 0.88 0.86 0.78 0.70 0.64 0.59 0.55 0.49 0.46 0.41 0.36 0.33 0.32 0.31 0.31 0.32 0.33 0.34 0.35 0.34 0.34 0.34 0.33 0.33 0.32 0.33 0.34 0.35 0.36 0.37 0.38 0.39 0.39 0.39 0.39 0.39 0.40 0.42 0.43 0.43
0.37 0.31 0.32 0.32 0.33 0.33 0.35 0.32 0.36 0.35 0.33 0.34 0.33 0.35 0.35 0.35 0.37 0.36 0.33 0.31 0.38 0.34 0.29 0.36 0.40 0.36 0.39 0.42 0.47 0.55 0.54 0.57 0.59 0.59 0.61 0.64 0.67 0.68 0.72 0.78 0.82 0.84 0.87 0.88 0.89 0.87 0.86 0.87 0.80 0.72 0.65 0.59 0.53 0.48 0.45 0.42 0.37 0.33 0.31 0.30 0.31 0.32 0.33 0.35 0.35 0.33 0.33 0.33 0.33 0.32 0.33 0.33 0.34 0.35 0.35 0.37 0.38 0.39 0.39 0.39 0.38 0.39 0.40 0.41 0.41 0.42
0.35 0.30 0.43 0.34 0.33 0.35 0.34 0.34 0.36 0.35 0.35 0.35 0.35 0.36 0.36 0.36 0.36 0.33 0.34 0.37 0.39 0.32 0.27 0.41 0.40 0.37 0.40 0.43 0.49 0.52 0.58 0.56 0.58 0.60 0.63 0.67 0.69 0.70 0.72 0.74 0.76 0.80 0.83 0.84 0.87 0.87 0.87 0.85 0.82 0.74 0.65 0.59 0.53 0.48 0.44 0.42 0.37 0.33 0.31 0.31 0.31 0.32 0.33 0.35 0.34 0.33 0.32 0.32 0.32 0.32 0.33 0.34 0.34 0.34 0.35 0.36 0.37 0.39 0.38 0.37 0.38 0.39 0.40 0.41 0.41 0.42
0.38 0.33 0.43 0.36 0.37 0.36 0.35 0.35 0.36 0.35 0.37 0.35 0.35 0.37 0.38 0.37 0.36 0.36 0.36 0.38 0.38 0.36 0.37 0.37 0.40 0.39 0.42 0.45 0.50 0.59 0.61 0.61 0.63 0.67 0.68 0.67 0.66 0.67 0.69 0.71 0.73 0.78 0.80 0.82 0.86 0.88 0.89 0.88 0.85 0.76 0.65 0.58 0.52 0.47 0.44 0.41 0.36 0.32 0.30 0.30 0.30 0.31 0.34 0.35 0.33 0.32 0.32 0.31 0.32 0.32 0.33 0.34 0.34 0.33 0.34 0.35 0.37 0.37 0.37 0.36 0.37 0.38 0.39 0.40 0.41 0.41
0.34 0.39 0.38 0.38 0.33 0.37 0.37 0.37 0.37 0.36 0.36 0.35 0.38 0.38 0.39 0.39 0.38 0.38 0.37 0.38 0.40 0.38 0.37 0.37 0.37 0.38 0.46 0.51 0.53 0.60 0.58 0.64 0.65 0.62 0.62 0.65 0.66 0.66 0.67 0.69 0.73 0.76 0.79 0.83 0.86 0.88 0.90 0.90 0.87 0.76 0.64 0.57 0.50 0.47 0.44 0.42 0.37 0.32 0.30 0.30 0.31 0.32 0.34 0.34 0.32 0.32 0.31 0.31 0.32 0.33 0.33 0.33 0.32 0.32 0.33 0.35 0.37 0.36 0.35 0.35 0.36 0.37 0.38 0.40 0.41 0.41
0.36 0.38 0.40 0.40 0.31 0.35 0.39 0.36 0.38 0.38 0.37 0.35 0.36 0.38 0.38 0.36 0.33 0.35 0.32 0.35 0.34 0.31 0.34 0.36 0.35 0.36 0.43 0.57 0.56 0.56 0.56 0.57 0.58 0.60 0.62 0.63 0.64 0.64 0.65 0.67 0.72 0.76 0.79 0.81 0.84 0.88 0.89 0.90 0.86 0.74 0.62 0.55 0.50 0.47 0.44 0.42 0.36 0.32 0.30 0.31 0.31 0.32 0.34 0.32 0.32 0.31 0.31 0.32 0.32 0.32 0.32 0.33 0.32 0.32 0.33 0.35 0.35 0.35 0.34 0.33 0.34 0.36 0.38 0.40 0.40 0.41
0.36 0.35 0.33 0.35 0.30 0.31 0.42 0.39 0.38 0.38 0.37 0.32 0.32 0.37 0.35 0.37 0.37 0.38 0.39 0.39 0.37 0.37 0.33 0.33 0.32 0.41 0.54 0.53 0.51 0.53 0.55 0.57 0.59 0.62 0.61 0.62 0.63 0.63 0.65 0.68 0.73 0.76 0.79 0.81 0.82 0.85 0.89 0.89 0.85 0.72 0.62 0.56 0.50 0.46 0.45 0.42 0.35 0.32 0.31 0.31 0.31 0.32 0.33 0.33 0.32 0.31 0.31 0.31 0.31 0.31 0.32 0.32 0.31 0.32 0.33 0.35 0.35 0.35 0.32 0.32 0.33 0.35 0.37 0.39 0.40 0.41
0.41 0.37 0.34 0.38 0.30 0.32 0.40 0.40 0.40 0.35 0.27 0.28 0.51 0.43 0.40 0.39 0.41 0.36 0.35 0.38 0.42 0.42 0.36 0.36 0.41 0.53 0.49 0.50 0.50 0.58 0.54 0.58 0.61 0.66 0.69 0.64 0.62 0.63 0.67 0.71 0.75 0.77 0.80 0.81 0.83 0.86 0.91 0.90 0.82 0.72 0.63 0.56 0.51 0.47 0.45 0.42 0.36 0.33 0.33 0.32 0.32 0.33 0.33 0.32 0.31 0.31 0.31 0.31 0.30 0.31 0.32 0.31 0.32 0.32 0.34 0.35 0.35 0.33 0.32 0.31 0.32 0.35 0.37 0.39 0.40 0.40
0.37 0.37 0.36 0.43 0.33 0.32 0.41 0.39 0.32 0.26 0.26 0.47 0.45 0.45 0.41 0.40 0.38 0.36 0.37 0.39 0.43 0.47 0.46 0.44 0.44 0.45 0.51 0.51 0.57 0.62 0.65 0.66 0.66 0.67 0.66 0.66 0.65 0.65 0.68 0.72 0.75 0.77 0.78 0.80 0.82 0.86 0.90 0.86 0.80 0.71 0.62 0.56 0.50 0.48 0.45 0.41 0.36 0.34 0.33 0.32 0.31 0.32 0.32 0.31 0.31 0.31 0.32 0.30 0.30 0.30 0.31 0.31 0.32 0.32 0.34 0.35 0.34 0.33 0.30 0.31 0.32 0.34 0.36 0.38 0.38 0.38
0.38 0.36 0.39 0.34 0.34 0.37 0.34 0.33 0.24 0.26 0.42 0.44 0.46 0.45 0.49 0.42 0.42 0.39 0.35 0.38 0.41 0.45 0.48 0.44 0.47 0.50 0.57 0.56 0.57 0.62 0.63 0.63 0.64 0.63 0.64 0.66 0.67 0.68 0.70 0.72 0.76 0.77 0.78 0.81 0.84 0.87 0.87 0.83 0.78 0.70 0.62 0.58 0.54 0.49 0.46 0.40 0.35 0.33 0.32 0.32 0.31 0.32 0.32 0.30 0.30 0.31 0.31 0.29 0.29 0.29 0.31 0.31 0.32 0.33 0.34 0.34 0.34 0.32 0.30 0.30 0.31 0.33 0.36 0.37 0.38 0.39
0.43 0.40 0.37 0.33 0.37 0.28 0.30 0.30 0.30 0.41 0.38 0.39 0.42 0.44 0.41 0.38 0.43 0.37 0.29 0.38 0.46 0.41 0.44 0.46 0.49 0.54 0.55 0.57 0.59 0.61 0.62 0.60 0.55 0.56 0.62 0.65 0.68 0.72 0.74 0.76 0.78 0.80 0.83 0.86 0.88 0.87 0.86 0.86 0.81 0.73 0.66 0.60 0.54 0.49 0.47 0.39 0.34 0.33 0.32 0.31 0.31 0.32 0.30 0.30 0.30 0.29 0.29 0.28 0.28 0.29 0.30 0.31 0.32 0.32 0.33 0.33 0.32 0.30 0.29 0.29 0.31 0.33 0.35 0.35 0.36 0.36
0.45 0.39 0.40 0.32 0.33 0.33 0.30 0.29 0.30 0.30 0.26 0.31 0.43 0.54 0.53 0.53 0.50 0.50 0.40 0.34 0.43 0.40 0.45 0.47 0.46 0.50 0.50 0.52 0.54 0.57 0.58 0.51 0.42 0.52 0.59 0.65 0.70 0.72 0.77 0.79 0.80 0.82 0.85 0.87 0.90 0.87 0.87 0.87 0.84 0.76 0.68 0.61 0.55 0.52 0.48 0.39 0.34 0.32 0.32 0.30 0.30 0.31 0.29 0.29 0.29 0.29 0.29 0.28 0.28 0.29 0.31 0.32 0.32 0.32 0.32 0.32 0.31 0.30 0.29 0.30 0.31 0.32 0.34 0.34 0.35 0.35
0.46 0.46 0.46 0.37 0.34 0.33 0.31 0.27 0.27 0.27 0.31 0.39 0.46 0.48 0.52 0.54 0.53 0.54 0.38 0.29 0.46 0.47 0.46 0.45 0.45 0.48 0.48 0.47 0.51 0.54 0.50 0.41 0.43 0.57 0.60 0.65 0.70 0.74 0.74 0.77 0.79 0.82 0.85 0.87 0.88 0.85 0.86 0.85 0.81 0.75 0.69 0.62 0.55 0.53 0.48 0.39 0.34 0.32 0.31 0.31 0.30 0.30 0.28 0.28 0.28 0.28 0.28 0.28 0.28 0.29 0.31 0.32 0.32 0.31 0.32 0.32 0.32 0.31 0.28 0.28 0.30 0.32 0.33 0.34 0.34 0.34
0.40 0.39 0.39 0.35 0.33 0.32 0.31 0.28 0.28 0.32 0.33 0.41 0.49 0.48 0.53 0.55 0.57 0.48 0.28 0.29 0.45 0.46 0.45 0.45 0.44 0.48 0.48 0.51 0.53 0.51 0.46 0.41 0.46 0.64 0.63 0.64 0.72 0.76 0.76 0.76 0.77 0.80 0.84 0.88 0.88 0.88 0.86 0.84 0.80 0.73 0.68 0.62 0.58 0.55 0.48 0.39 0.33 0.32 0.32 0.31 0.32 0.29 0.27 0.27 0.28 0.28 0.28 0.29 0.29 0.30 0.31 0.31 0.31 0.32 0.32 0.32 0.31 0.30 0.29 0.29 0.30 0.31 0.31 0.32 0.33 0.32
0.36 0.37 0.37 0.32 0.32 0.32 0.30 0.30 0.33 0.35 0.43 0.47 0.48 0.53 0.56 0.58 0.52 0.34 0.27 0.40 0.47 0.48 0.47 0.49 0.49 0.50 0.52 0.50 0.52 0.48 0.55 0.59 0.57 0.60 0.63 0.64 0.67 0.73 0.76 0.80 0.80 0.82 0.82 0.84 0.85 0.86 0.84 0.81 0.79 0.75 0.70 0.66 0.61 0.56 0.49 0.40 0.34 0.32 0.33 0.33 0.31 0.28 0.28 0.28 0.28 0.29 0.29 0.29 0.29 0.29 0.30 0.30 0.31 0.31 0.32 0.32 0.31 0.30 0.29 0.29 0.29 0.30 0.29 0.29 0.30 0.31
0.40 0.38 0.36 0.37 0.33 0.31 0.33 0.29 0.31 0.35 0.47 0.52 0.54 0.54 0.56 0.47 0.32 0.32 0.60 0.57 0.53 0.51 0.53 0.53 0.52 0.53 0.54 0.53 0.53 0.63 0.62 0.59 0.60 0.62 0.61 0.61 0.64 0.70 0.74 0.76 0.78 0.79 0.82 0.85 0.85 0.83 0.82 0.79 0.78 0.75 0.71 0.68 0.63 0.58 0.51 0.41 0.35 0.34 0.33 0.33 0.31 0.29 0.28 0.28 0.29 0.29 0.29 0.29 0.29 0.30 0.30 0.30 0.31 0.32 0.32 0.32 0.31 0.29 0.28 0.28 0.29 0.29 0.29 0.28 0.27 0.27
0.43 0.37 0.33 0.32 0.34 0.36 0.36 0.32 0.30 0.28 0.41 0.50 0.53 0.51 0.56 0.39 0.39 0.48 0.51 0.51 0.55 0.56 0.55 0.54 0.55 0.56 0.56 0.54 0.60 0.61 0.58 0.59 0.61 0.59 0.57 0.60 0.63 0.66 0.70 0.73 0.73 0.75 0.78 0.80 0.81 0.83 0.81 0.76 0.73 0.71 0.70 0.66 0.63 0.60 0.52 0.44 0.37 0.34 0.34 0.33 0.31 0.29 0.29 0.30 0.30 0.30 0.29 0.29 0.29 0.30 0.30 0.31 0.32 0.31 0.31 0.31 0.30 0.29 0.27 0.28 0.28 0.29 0.29 0.28 0.26 0.26
0.53 0.40 0.41 0.39 0.40 0.33 0.32 0.29 0.29 0.35 0.49 0.55 0.49 0.42 0.50 0.48 0.56 0.57 0.54 0.52 0.57 0.58 0.57 0.57 0.57 0.60 0.59 0.59 0.61 0.60 0.62 0.62 0.61 0.60 0.56 0.59 0.65 0.69 0.72 0.75 0.77 0.79 0.81 0.81 0.82 0.80 0.79 0.75 0.71 0.69 0.66 0.64 0.64 0.61 0.55 0.47 0.38 0.34 0.33 0.33 0.31 0.30 0.31 0.31 0.32 0.31 0.30 0.29 0.30 0.31 0.31 0.32 0.32 0.32 0.32 0.31 0.30 0.29 0.28 0.28 0.28 0.27 0.27 0.27 0.26 0.25
0.53 0.47 0.50 0.42 0.51 0.39 0.34 0.38 0.45 0.52 0.55 0.55 0.53 0.57 0.58 0.61 0.64 0.61 0.60 0.64 0.57 0.59 0.62 0.60 0.58 0.62 0.63 0.64 0.64 0.62 0.61 0.64 0.62 0.63 0.58 0.58 0.65 0.68 0.71 0.74 0.76 0.78 0.79 0.79 0.79 0.80 0.77 0.72 0.69 0.67 0.64 0.65 0.65 0.62 0.57 0.51 0.41 0.35 0.34 0.34 0.32 0.31 0.32 0.33 0.33 0.32 0.30 0.29 0.30 0.32 0.32 0.33 0.33 0.33 0.32 0.32 0.32 0.29 0.29 0.29 0.28 0.26 0.26 0.26 0.26 0.25
0.56 0.60 0.64 0.58 0.52 0.54 0.54 0.55 0.58 0.55 0.55 0.57 0.58 0.66 0.64 0.64 0.64 0.60 0.59 0.59 0.64 0.66 0.64 0.63 0.64 0.63 0.66 0.70 0.64 0.64 0.64 0.65 0.64 0.64 0.63 0.62 0.65 0.71 0.74 0.76 0.77 0.79 0.79 0.79 0.79 0.77 0.74 0.72 0.70 0.67 0.65 0.66 0.65 0.62 0.59 0.54 0.46 0.36 0.36 0.35 0.33 0.32 0.33 0.35 0.35 0.34 0.32 0.31 0.32 0.32 0.33 0.32 0.32 0.32 0.31 0.31 0.30 0.30 0.30 0.30 0.28 0.26 0.26 0.26 0.25 0.25
0.49 0.58 0.58 0.54 0.61 0.49 0.40 0.51 0.49 0.50 0.54 0.56 0.57 0.62 0.65 0.64 0.64 0.63 0.62 0.62 0.69 0.68 0.66 0.73 0.70 0.69 0.69 0.71 0.68 0.65 0.66 0.67 0.65 0.66 0.65 0.62 0.65 0.70 0.72 0.73 0.75 0.76 0.77 0.76 0.77 0.74 0.71 0.71 0.67 0.66 0.67 0.66 0.65 0.64 0.61 0.56 0.49 0.43 0.39 0.35 0.33 0.34 0.35 0.37 0.37 0.36 0.35 0.34 0.34 0.34 0.33 0.32 0.31 0.30 0.31 0.31 0.31 0.31 0.31 0.31 0.29 0.28 0.28 0.27 0.26 0.25
0.40 0.61 0.59 0.57 0.57 0.47 0.43 0.52 0.53 0.55 0.61 0.63 0.61 0.58 0.58 0.60 0.62 0.64 0.65 0.69 0.70 0.71 0.72 0.72 0.75 0.72 0.73 0.70 0.72 0.69 0.68 0.69 0.67 0.65 0.64 0.63 0.65 0.70 0.72 0.74 0.76 0.77 0.78 0.77 0.74 0.73 0.72 0.70 0.67 0.67 0.68 0.66 0.67 0.65 0.62 0.58 0.52 0.46 0.39 0.36 0.35 0.35 0.36 0.38 0.38 0.38 0.38 0.37 0.36 0.35 0.34 0.31 0.29 0.30 0.31 0.32 0.31 0.31 0.31 0.30 0.29 0.27 0.26 0.27 0.29 0.28
0.57 0.62 0.55 0.57 0.55 0.53 0.56 0.55 0.54 0.55 0.56 0.57 0.59 0.60 0.62 0.63 0.63 0.63 0.65 0.67 0.69 0.68 0.72 0.74 0.76 0.75 0.74 0.74 0.74 0.72 0.66 0.66 0.69 0.68 0.65 0.64 0.66 0.70 0.72 0.75 0.76 0.77 0.75 0.71 0.72 0.73 0.71 0.71 0.69 0.70 0.69 0.70 0.69 0.66 0.63 0.58 0.54 0.48 0.39 0.37 0.36 0.36 0.37 0.38 0.38 0.39 0.40 0.39 0.37 0.36 0.33 0.31 0.32 0.32 0.32 0.31 0.31 0.33 0.36 0.36 0.30 0.25 0.24 0.25 0.27 0.30
0.63 0.55 0.60 0.62 0.53 0.46 0.46 0.49 0.53 0.44 0.44 0.51 0.55 0.58 0.60 0.65 0.67 0.66 0.66 0.65 0.69 0.70 0.72 0.71 0.74 0.79 0.78 0.78 0.73 0.69 0.64 0.65 0.69 0.69 0.66 0.66 0.67 0.71 0.73 0.75 0.75 0.74 0.73 0.75 0.76 0.75 0.74 0.74 0.73 0.72 0.71 0.72 0.71 0.67 0.64 0.60 0.57 0.49 0.41 0.38 0.37 0.37 0.37 0.37 0.38 0.40 0.41 0.40 0.38 0.36 0.34 0.33 0.33 0.32 0.31 0.29 0.26 0.27 0.29 0.31 0.32 0.31 0.26 0.24 0.24 0.25
0.57 0.59 0.58 0.56 0.51 0.47 0.53 0.56 0.62 0.58 0.53 0.55 0.58 0.60 0.68 0.68 0.64 0.64 0.63 0.65 0.70 0.74 0.74 0.72 0.69 0.71 0.72 0.74 0.76 0.70 0.69 0.68 0.71 0.72 0.70 0.69 0.70 0.74 0.76 0.76 0.73 0.73 0.74 0.76 0.74 0.74 0.74 0.74 0.74 0.73 0.73 0.74 0.72 0.68 0.65 0.61 0.57 0.48 0.42 0.39 0.38 0.37 0.38 0.38 0.39 0.41 0.42 0.41 0.40 0.38 0.36 0.36 0.34 0.33 0.32 0.30 0.28 0.27 0.28 0.28 0.29 0.27 0.26 0.26 0.25 0.25
Wind_Speed
2 3 4 4 4 4 4 5 5 6 7 7 7 7 8 8 8 8 8 8 7 7 7 7 7 7 7 7 7 6 6 6 6 6 6 5 5 6 6 6 6 6 7 7 6 5 5 6 6 7 8 9 10 11 12 13 14 14 15 15 14 14 15 15 14 14 15 15 14 15 15 16 17 18 18 19 21 21 22 23 24 24 25 26 27 28
2 2 4 5 5 5 5 5 5 6 7 7 7 8 8 8 8 8 7 7 6 6 7 7 7 7 6 6 6 6 6 6 6 6 6 6 6 6 6 6 6 6 6 6 5 5 5 5 6 7 8 9 10 11 12 13 14 14 15 15 15 14 15 15 15 15 15 15 15 15 16 16 17 18 19 20 21 22 22 23 24 25 25 26 27 28
2 3 5 5 5 5 5 5 5 6 6 7 7 6 7 8 8 8 7 7 6 6 7 7 7 7 6 6 6 6 6 6 6 6 6 6 6 6 6 6 6 6 5 5 5 4 4 5 6 7 8 9 10 11 12 13 13 14 14 15 15 14 15 15 15 15 15 16 16 16 17 17 18 19 20 20 21 22 23 24 24 24 25 27 28 29
3 4 5 5 4 5 5 6 6 6 6 6 6 6 7 7 6 7 7 7 7 6 6 6 6 6 6 6 6 6 6 6 6 6 5 5 6 6 5 5 5 5 5 4 4 4 4 5 6 6 7 8 9 10 11 12 13 14 14 15 15 15 15 15 16 16 16 16 17 17 17 18 18 19 20 21 22 22 23 23 24 25 26 27 29 30
5 5 5 5 5 5 6 6 6 6 6 6 6 6 7 7 6 7 8 8 7 7 6 5 5 6 5 5 5 5 5 6 6 6 6 5 5 5 5 5 5 5 4 4 3 3 3 4 5 6 7 8 9 10 12 12 13 13 14 15 15 15 15 16 16 16 16 17 17 17 18 18 19 20 21 21 22 23 23 24 24 25 26 28 29 30
6 5 5 5 5 5 6 5 5 5 5 6 6 7 8 8 8 9 9 7 6 6 5 4 3 5 5 4 5 5 5 5 6 6 6 6 6 5 5 5 5 4 3 3 3 3 3 4 5 5 6 7 9 10 11 12 13 13 14 15 15 15 15 16 16 17 17 17 18 18 19 19 20 20 21 22 22 23 23 24 25 25 27 28 29 30
5 5 4 5 6 5 5 5 4 3 4 6 7 7 8 8 8 9 7 5 4 5 5 3 2 4 4 4 5 5 5 5 6 6 6 7 6 6 5 5 5 4 3 3 2 2 3 4 4 5 6 7 9 10 11 11 13 14 14 15 15 15 15 16 16 17 17 17 18 19 19 20 20 20 21 22 23 23 24 24 25 25 27 28 30 30
4 4 4 4 5 4 4 4 4 3 3 6 7 7 7 7 8 7 5 4 5 5 4 3 2 2 4 4 5 5 5 5 6 6 6 6 6 6 6 5 5 4 3 2 1 1 2 3 4 5 6 7 8 9 10 11 13 14 14 15 15 15 15 16 17 17 18 18 19 19 20 20 21 21 22 22 23 23 24 25 25 26 27 29 30 30
3 3 3 4 3 3 4 4 4 3 4 6 7 6 6 6 6 5 3 4 4 3 3 4 2 1 4 5 4 4 4 5 6 6 6 6 6 6 6 5 5 4 3 1 1 1 2 3 4 4 5 7 8 9 10 11 13 14 14 15 15 15 15 16 17 18 18 19 19 19 20 21 21 21 22 23 23 24 24 25 26 26 27 29 29 30
2 2 2 3 2 3 4 4 5 4 4 6 6 5 5 4 4 3 2 3 3 2 4 4 2 1 4 5 4 4 4 5 6 6 6 6 6 6 5 5 4 3 2 1 0 1 2 3 3 4 5 7 8 9 10 11 13 13 14 14 15 15 15 16 17 18 18 19 19 20 20 21 21 22 22 23 24 24 25 25 26 27 27 28 29 30
2 1 1 2 2 3 4 5 5 4 5 6 5 5 5 4 3 2 2 2 1 3 5 4 2 1 2 4 3 3 3 4 5 6 6 6 6 6 5 5 4 3 2 1 0 1 1 2 3 3 5 6 7 9 10 11 12 13 14 14 15 15 16 17 18 18 19 19 19 20 21 21 22 22 23 24 24 24 25 25 26 27 27 28 29 30
3 3 2 2 2 3 4 4 4 4 5 5 4 4 3 3 2 1 2 2 2 4 5 3 2 0 1 3 3 3 3 3 5 6 6 7 7 6 5 5 4 3 2 1 0 0 1 2 2 3 4 6 7 8 9 11 12 13 13 14 15 15 16 17 18 18 19 19 20 21 21 21 22 23 23 24 24 25 25 26 26 26 27 28 29 29
3 3 2 2 2 3 4 4 4 4 4 3 3 3 2 2 3 2 2 3 4 5 5 3 2 1 1 3 3 4 4 3 4 5 6 7 7 6 5 5 4 3 2 1 1 0 1 1 2 2 4 5 6 8 9 10 12 12 13 14 14 15 16 17 18 18 19 19 20 21 21 21 22 23 24 24 24 25 25 25 26 26 27 28 29 29
2 2 3 3 3 4 4 3 4 3 3 3 2 2 1 3 4 4 4 5 5 5 5 3 2 1 2 3 3 2 3 3 3 4 6 6 6 6 5 4 3 3 2 1 1 1 1 1 1 2 3 5 6 7 9 10 11 12 13 14 14 15 16 17 18 18 19 20 20 21 21 22 22 23 24 24 25 25 25 25 26 26 27 28 29 29
2 1 3 4 2 4 5 2 2 2 3 3 1 0 1 2 3 4 4 5 5 4 4 3 2 3 3 2 2 2 2 3 3 3 5 5 5 5 5 4 3 3 2 1 1 1 1 1 1 2 3 4 6 7 8 9 11 12 13 13 14 15 16 17 17 18 19 19 20 21 22 22 23 24 24 24 25 25 26 26 26 27 27 28 28 29
3 0 3 3 1 4 5 3 2 1 2 2 1 0 1 2 3 3 3 4 4 3 3 2 2 3 4 3 3 2 2 3 4 4 4 5 5 5 5 4 3 3 2 2 1 1 1 0 1 2 3 4 5 7 8 9 10 12 12 13 14 15 16 17 17 18 19 19 20 21 22 23 24 24 25 25 25 25 26 26 27 27 28 28 28 29
2 0 2 3 2 4 5 3 4 2 1 2 1 1 1 2 2 2 2 1 2 3 4 3 2 3 3 3 2 1 2 3 4 4 4 5 5 5 5 4 4 3 2 2 1 1 1 1 1 2 3 4 5 6 7 9 10 11 12 13 14 15 15 16 17 18 19 19 20 22 23 23 24 25 25 25 25 26 26 27 27 28 28 28 28 29
3 1 2 3 4 4 4 3 4 3 2 1 1 0 1 1 1 1 2 2 2 3 4 4 4 3 3 3 2 1 2 4 5 5 5 5 5 6 5 5 4 3 3 2 2 1 1 2 1 2 3 3 4 6 7 8 10 11 12 12 13 15 15 16 17 18 18 19 20 21 23 24 24 25 25 25 25 26 26 27 27 28 29 28 28 29
4 3 2 2 3 4 4 4 5 4 4 3 2 1 1 2 1 1 2 3 4 4 4 4 4 3 4 4 3 0 2 4 5 5 5 6 6 6 6 5 5 4 3 2 2 2 2 2 2 2 2 3 4 5 6 8 9 10 11 12 13 14 15 16 16 17 18 19 20 21 23 24 24 24 25 25 25 26 26 27 28 28 29 28 28 29
5 5 3 2 3 4 5 5 5 5 5 5 4 3 3 3 3 2 3 3 4 3 4 5 4 3 5 5 4 3 1 4 4 5 5 6 7 7 6 6 5 5 4 3 2 2 2 3 2 2 2 3 3 5 6 7 9 10 11 12 13 14 14 15 16 17 18 19 20 21 22 23 24 24 25 25 25 26 27 27 28 28 29 28 28 28
6 6 5 3 4 4 5 6 6 5 5 5 5 4 4 3 3 4 3 3 4 4 3 4 4 4 4 4 5 4 1 3 4 4 5 6 7 7 6 6 6 5 5 4 3 3 2 3 2 2 2 2 3 4 5 7 8 9 10 11 12 13 14 15 16 17 18 19 20 21 22 23 24 24 25 25 26 26 27 27 28 28 29 28 28 28
7 7 6 5 6 6 5 5 6 6 6 6 5 5 5 5 4 4 4 2 3 4 4 5 5 4 4 4 4 4 2 2 4 4 5 6 7 7 7 7 6 6 5 4 3 3 3 3 3 2 2 2 3 4 5 6 8 9 10 11 12 13 13 14 15 16 17 18 20 21 22 23 24 24 25 25 26 27 27 28 28 28 29 29 28 28
7 7 7 7 7 6 5 4 6 7 8 7 7 6 6 5 5 6 5 3 4 4 4 5 5 4 3 4 4 4 3 2 3 4 4 6 7 7 7 7 7 6 5 4 3 3 3 3 3 2 2 2 2 3 5 6 7 9 9 10 11 12 13 14 15 16 17 18 19 21 22 23 24 24 25 26 26 27 27 28 28 29 29 29 29 28
7 8 9 8 7 6 6 6 6 7 8 9 8 8 8 7 6 6 6 5 6 6 5 5 5 3 2 3 4 3 3 2 2 3 4 5 6 7 7 7 7 6 5 4 3 3 3 3 3 3 2 2 2 3 4 6 7 8 9 10 11 12 12 13 14 15 17 18 19 20 22 23 23 24 25 26 26 27 28 28 28 28 29 29 29 28
9 9 9 9 7 7 7 7 7 7 8 9 8 8 9 9 8 7 7 6 7 8 7 6 6 4 3 3 4 3 2 2 2 3 4 4 5 6 7 7 7 6 5 4 3 3 3 3 3 3 3 3 3 3 4 5 6 8 9 9 10 11 12 13 14 15 16 17 19 20 22 22 23 24 25 26 26 27 28 28 28 28 29 29 29 28
10 10 10 10 9 8 7 6 6 6 7 8 9 9 10 10 9 8 7 7 8 8 7 8 7 6 4 4 4 3 3 3 3 3 4 5 5 6 6 6 6 6 5 5 4 4 4 4 4 3 3 3 3 3 4 5 5 7 8 9 10 11 11 12 14 15 16 17 18 20 21 22 23 24 25 25 26 27 28 28 28 28 28 28 29 28
10 10 11 12 11 10 8 7 6 7 7 8 9 10 10 11 11 9 9 9 9 8 8 9 9 9 8 7 5 4 4 4 4 4 5 5 6 6 6 6 6 6 5 5 5 5 5 4 4 4 4 3 3 3 3 4 5 6 7 8 9 10 11 12 13 14 16 17 18 20 21 22 23 23 24 25 26 27 27 28 28 28 28 28 28 28
12 12 12 13 13 11 9 8 8 9 9 9 9 10 10 11 11 11 11 11 10 10 10 8 8 10 10 8 7 6 6 6 5 5 6 5 6 7 7 7 7 6 6 5 5 6 5 5 5 5 5 4 4 3 3 4 4 6 7 8 9 10 10 12 13 14 15 16 18 19 20 21 22 23 24 25 25 26 27 27 28 28 28 28 28 28
13 13 12 12 13 12 10 9 9 10 10 10 10 10 10 11 12 13 14 13 12 12 12 10 9 11 10 10 9 7 7 7 6 6 6 6 6 7 7 8 8 7 7 7 6 6 6 6 6 6 5 5 4 4 3 4 4 5 6 7 8 9 10 11 12 14 15 16 17 19 20 21 22 23 24 24 25 26 26 27 27 27 27 27 28 28
14 13 11 12 13 12 11 11 11 11 11 11 12 11 11 12 13 13 14 14 14 15 15 14 13 13 12 11 10 8 7 7 7 6 6 6 7 8 8 9 9 8 8 8 7 7 7 7 7 6 6 6 5 4 4 4 4 5 6 7 8 8 9 11 12 13 14 16 17 18 19 20 21 22 23 24 25 25 25 26 26 27 27 27 28 28
14 12 11 12 13 12 11 11 11 12 12 12 12 12 12 12 13 14 14 14 14 15 16 15 15 14 13 12 10 8 7 7 7 6 6 6 7 8 9 9 9 9 9 8 7 7 7 8 7 7 7 7 6 5 4 4 4 5 5 6 7 8 9 10 11 13 14 15 16 18 19 20 21 22 23 23 24 24 25 25 26 26 26 27 27 27
15 13 12 12 13 12 11 11 12 11 12 13 14 14 14 14 14 14 14 14 15 15 16 15 15 14 11 10 9 9 9 9 8 8 7 7 8 9 10 10 10 9 9 9 8 8 8 8 8 8 7 7 6 5 4 4 4 4 5 6 7 8 9 10 11 12 13 15 16 17 18 19 20 21 22 23 23 23 24 25 25 25 26 26 27 27
16 15 13 13 13 12 11 11 11 11 12 13 13 13 14 14 14 14 13 14 15 15 15 15 14 12 10 9 10 10 10 10 10 9 8 8 8 9 10 11 10 10 10 9 9 9 9 9 8 8 8 7 7 6 5 4 4 4 5 5 6 7 8 9 10 12 13 14 15 17 18 19 20 21 21 22 22 23 23 24 24 25 25 25 26 26
17 17 15 14 14 12 11 10 11 12 12 11 9 9 11 12 12 13 13 13 13 14 14 14 14 12 11 11 11 10 10 10 10 10 9 8 9 9 10 11 11 10 10 10 10 10 9 9 8 8 8 7 7 6 5 4 4 4 4 5 6 7 8 9 10 11 12 14 15 16 17 18 19 20 21 21 21 22 23 23 24 24 24 25 25 25
18 18 16 14 14 12 10 11 12 12 11 10 8 8 9 10 11 12 14 14 14 13 14 14 14 13 12 11 10 10 10 9 9 10 9 9 9 10 10 11 11 11 10 10 10 10 9 8 8 8 8 7 7 6 5 4 4 4 4 5 6 6 7 8 9 11 12 13 14 15 16 18 18 19 20 20 20 21 22 22 23 23 24 24 24 24
18 18 17 15 15 14 12 13 13 11 10 9 8 8 8 9 10 11 13 13 12 12 13 13 13 12 10 10 10 10 10 9 10 10 9 9 9 10 10 11 11 11 11 11 11 10 9 8 8 8 8 7 7 6 6 5 4 4 4 5 5 6 7 8 9 10 11 12 14 15 16 17 18 18 19 19 20 20 21 22 22 23 23 23 23 23
20 19 17 16 16 15 15 15 14 12 11 11 10 8 8 9 9 10 12 12 11 11 13 12 11 10 9 9 9 9 9 10 11 10 10 9 9 9 10 10 11 11 11 11 10 9 9 8 8 7 7 7 7 7 6 5 4 4 4 5 5 6 7 8 9 10 11 12 13 14 15 16 17 18 18 18 19 19 20 21 21 22 22 23 23 23
20 20 19 18 17 16 16 16 14 13 13 11 9 8 7 8 8 8 11 12 11 11 11 11 10 10 9 9 9 8 9 10 11 9 8 9 9 9 9 10 11 11 11 11 10 9 9 8 8 7 7 7 7 6 6 5 5 4 4 5 5 6 6 7 8 9 10 11 12 14 15 15 16 17 17 18 18 18 19 20 20 21 22 22 22 22
21 20 19 19 17 17 17 17 15 14 13 11 9 8 7 8 8 8 11 11 9 8 9 10 10 10 9 9 9 9 10 10 9 7 7 8 9 9 9 9 10 10 11 11 10 10 9 8 8 8 7 7 7 6 6 5 5 4 4 5 5 5 6 7 8 9 10 11 12 13 14 15 16 16 17 17 17 17 18 19 19 20 21 21 21 21
21 20 20 20 19 18 18 17 16 15 13 11 10 9 8 9 8 9 11 9 7 7 8 9 10 10 9 9 9 10 10 10 8 7 7 8 8 9 9 9 9 10 10 11 10 10 9 8 8 8 8 7 7 6 6 5 5 4 4 5 5 5 6 7 7 8 9 10 11 12 13 14 15 16 16 16 16 17 17 18 18 19 20 20 20 21
21 21 21 21 20 19 19 18 17 16 14 12 11 10 10 10 10 12 11 9 7 8 9 10 10 10 9 9 9 10 9 8 7 7 7 7 8 8 9 9 9 9 10 10 10 9 9 9 9 8 8 7 7 6 6 5 5 4 5 5 5 5 5 6 7 8 9 10 11 12 13 14 14 15 15 15 15 16 17 17 18 18 19 19 19 20
21 20 20 21 21 19 19 19 18 17 14 12 11 11 11 12 13 13 11 9 9 9 9 10 10 10 9 10 9 8 7 6 6 7 7 7 7 8 8 9 9 9 9 10 10 9 9 9 9 9 8 7 7 7 6 5 5 4 5 5 5 5 5 5 6 7 8 9 10 11 12 13 14 14 14 14 15 15 16 16 17 18 18 18 19 20
20 19 20 21 21 20 19 19 19 17 14 12 12 12 14 15 14 13 12 11 10 10 10 10 10 10 9 9 9 8 7 7 7 6 6 7 7 7 9 9 9 9 10 10 10 10 9 9 9 9 8 8 7 7 6 5 5 5 5 5 4 4 4 5 6 7 8 9 10 11 12 13 13 13 13 13 14 15 15 16 16 17 17 18 18 19
21 21 21 21 21 21 20 20 19 17 14 14 14 14 15 16 13 12 12 11 10 10 10 10 10 10 10 9 8 8 7 7 7 6 6 6 6 8 9 10 9 10 10 10 10 10 9 9 9 9 8 8 7 7 6 5 5 5 5 4 4 4 4 5 6 7 8 8 9 10 11 12 12 12 12 13 14 14 15 15 16 16 17 17 18 19
23 23 22 21 21 22 21 19 17 15 14 16 17 15 14 15 14 12 11 11 10 11 11 10 10 10 10 9 9 9 8 8 7 7 6 6 7 8 10 10 10 10 10 10 10 10 10 9 9 9 8 8 8 7 6 6 5 5 5 4 4 4 4 5 6 7 7 8 9 10 10 10 11 11 12 12 13 14 14 15 15 16 16 17 17 18
24 24 23 21 21 22 21 18 17 16 15 17 18 16 14 14 14 13 12 12 11 11 11 10 10 10 10 9 9 9 9 8 7 7 7 7 8 9 10 10 10 10 10 10 10 10 10 10 9 9 9 8 8 7 6 6 6 5 5 5 4 4 5 5 6 7 7 8 9 9 9 9 10 11 11 12 13 13 14 15 15 15 16 16 17 17
25 24 24 23 22 22 21 20 20 19 18 17 18 18 16 16 15 14 14 13 12 12 11 11 10 10 10 10 10 10 9 9 8 8 7 7 8 9 10 10 10 10 10 10 11 11 10 10 10 9 9 8 8 7 7 6 6 6 5 5 5 5 5 5 6 7 8 8 8 8 8 9 9 10 11 11 12 13 13 14 15 15 15 15 16 16
23 24 25 25 24 22 20 19 19 19 19 17 17 17 17 17 17 16 15 14 13 12 12 11 11 10 10 11 11 11 10 10 9 8 8 8 9 10 10 10 10 10 10 10 11 11 11 10 10 10 9 9 8 8 7 7 7 6 6 5 5 5 5 6 6 7 7 8 8 7 8 8 9 10 10 11 12 12 13 14 15 15 15 15 15 15
20 22 24 24 24 23 21 19 19 19 19 19 20 19 19 18 17 16 16 15 13 13 12 12 11 11 10 11 11 11 11 10 9 9 9 9 9 10 11 11 11 11 11 11 11 11 11 11 11 10 10 9 9 8 8 7 7 7 6 6 6 6 6 6 6 7 7 7 7 7 7 8 9 9 10 10 11 12 13 14 14 14 14 15 15 15
21 22 23 22 22 22 21 20 20 20 20 20 20 21 20 19 18 17 16 15 15 14 13 12 11 11 11 10 10 10 10 10 10 9 9 9 10 11 11 11 11 11 11 11 11 11 11 11 11 11 10 9 9 9 8 8 8 7 7 6 6 6 6 6 7 7 7 7 7 7 7 8 8 9 9 10 10 11 12 13 14 14 14 14 14 15
25 24 23 23 23 22 21 20 21 21 21 20 19 20 20 19 18 18 17 16 15 14 13 12 12 11 11 10 10 10 10 10 9 9 9 10 10 11 11 12 12 12 11 11 11 11 11 11 11 11 11 10 9 9 9 8 8 8 7 7 7 7 7 7 7 7 7 7 7 7 7 8 8 8 9 9 10 10 11 12 13 14 14 14 14 14
Wind_Direction
88 80 65 58 55 66 65 49 52 72 84 90 92 91 92 92 89 91 94 91 92 100 107 116 122 125 129 133 139 142 143 145 143 141 139 135 131 129 126 123 120 117 115 110 100 88 72 58 47 39 32 27 24 22 21 20 18 17 16 16 15 15 15 15 14 12 11 9 6 5 4 2 1 1 360 359 358 357 355 355 354 353 353 352 351 349
83 79 62 57 60 71 68 59 71 88 94 93 93 95 94 92 93 91 89 90 94 99 107 116 119 121 125 130 136 141 144 145 145 145 144 140 138 135 132 129 123 119 117 111 101 86 67 52 42 35 30 26 23 21 20 19 18 16 16 16 16 16 16 16 15 13 11 10 8 6 5 2 0 0 0 358 357 356 355 355 355 354 353 352 351 350
88 83 70 69 72 78 76 77 89 94 96 92 92 95 92 95 97 92 88 91 97 98 108 120 117 116 123 126 132 139 140 139 141 142 141 142 143 139 137 133 127 124 122 115 101 83 61 47 39 32 27 23 22 20 19 18 16 15 15 15 15 17 16 16 15 13 11 9 7 5 4 2 1 360 359 358 356 356 355 355 354 353 353 353 352 351
79 78 75 82 84 87 87 93 99 95 91 88 90 92 95 105 100 91 97 99 96 92 102 118 112 108 120 127 131 138 138 137 139 140 139 143 144 142 139 136 134 132 127 119 102 79 58 45 36 29 25 22 20 19 18 17 15 14 14 14 15 17 16 15 14 12 10 8 6 5 3 2 0 359 358 357 356 355 355 354 354 354 354 354 354 352
84 78 82 91 90 95 98 104 107 96 89 86 84 84 95 106 91 88 104 105 99 93 96 113 111 106 120 132 134 136 140 142 143 145 146 148 147 145 144 142 140 137 129 120 102 77 56 42 33 27 22 19 19 18 17 16 15 15 14 15 15 16 16 15 13 11 10 8 7 5 3 2 1 359 358 357 355 355 354 354 354 353 353 354 354 353
85 84 89 94 92 99 103 104 101 92 94 94 87 85 95 103 96 98 109 109 101 94 94 108 108 105 119 138 139 137 145 148 149 153 155 153 152 153 154 149 144 139 130 116 99 72 50 39 30 24 19 18 17 15 15 15 14 15 14 14 15 16 16 14 13 11 10 8 6 5 4 3 1 359 358 357 356 355 354 354 353 353 353 354 354 353
84 93 93 95 95 100 101 90 85 91 100 99 96 96 99 104 106 106 109 103 83 83 93 98 84 94 117 141 145 145 153 153 155 161 161 158 157 161 161 154 150 145 132 113 95 66 44 34 24 19 15 14 14 13 13 13 13 13 13 14 15 16 15 14 12 11 9 8 6 5 4 3 2 359 358 357 357 355 354 354 353 353 354 355 354 353
101 107 98 102 102 96 87 79 91 103 95 97 104 108 106 109 111 105 102 89 72 80 99 100 72 83 112 128 142 152 160 160 164 168 167 165 164 166 166 159 159 156 141 123 96 58 34 24 17 14 11 10 11 11 11 11 11 11 12 14 15 15 14 13 12 11 9 7 5 5 4 3 2 0 358 357 357 355 355 355 355 354 355 355 355 354
130 127 109 111 105 81 65 70 104 111 91 102 113 114 111 115 113 98 83 75 71 81 97 99 103 90 103 116 138 156 169 175 176 176 173 172 169 170 171 166 166 163 157 152 106 52 21 13 10 9 6 6 9 9 9 10 9 10 12 14 14 14 13 12 12 10 9 7 6 5 5 4 2 0 359 358 357 356 356 356 356 356 356 356 355 355
145 138 117 117 82 64 66 78 109 108 92 109 119 117 114 117 116 101 68 59 66 76 70 81 99 65 99 118 142 163 182 189 182 180 178 176 174 173 174 172 172 169 168 173 110 36 6 4 2 2 1 3 8 9 8 9 9 10 12 14 14 13 12 12 11 10 8 7 6 6 5 4 3 1 359 358 358 357 357 357 357 357 357 357 357 356
132 136 145 130 61 72 89 93 104 99 100 116 123 120 117 115 114 104 71 54 66 87 67 71 91 32 91 108 128 157 177 184 177 177 178 178 176 174 176 178 178 176 176 181 128 28 1 357 352 355 359 2 7 8 7 9 9 11 12 12 12 12 11 11 10 9 8 8 7 7 6 4 3 2 0 360 359 358 358 357 357 357 358 358 357 357
145 159 162 131 87 105 115 108 108 108 116 127 124 121 122 115 110 114 108 86 66 72 62 67 100 96 87 87 104 137 147 166 173 175 177 178 177 175 179 183 180 180 181 183 175 31 349 347 345 349 356 360 5 8 8 9 10 11 12 11 11 11 11 11 10 10 9 9 8 8 6 4 3 3 2 0 360 359 359 358 358 358 358 358 358 358
148 156 158 140 135 149 143 128 126 127 138 141 124 128 129 90 78 62 81 76 61 62 51 54 94 103 84 78 94 138 149 160 169 175 178 180 179 177 182 186 182 183 187 196 215 262 314 325 338 347 353 357 3 8 9 9 9 10 11 11 10 10 11 11 10 10 10 10 9 8 7 5 4 4 2 1 1 0 360 359 359 358 358 358 358 358
149 154 181 173 166 179 171 139 126 130 152 159 135 129 67 50 50 41 51 54 55 61 53 59 90 64 84 90 91 134 158 162 166 174 177 179 181 180 183 186 182 184 195 211 229 256 293 309 339 348 349 355 3 9 9 8 9 10 10 10 9 10 11 11 11 11 10 10 9 8 7 6 5 4 3 2 2 2 1 0 360 359 358 357 357 358
222 213 178 179 170 181 189 175 123 112 135 152 140 134 11 25 27 27 36 35 32 43 57 74 68 27 49 88 87 105 144 168 174 173 173 176 179 180 182 184 182 187 202 221 235 251 274 297 346 348 346 354 3 8 8 7 8 9 10 10 9 10 12 12 12 11 11 10 10 9 8 7 7 6 4 4 3 3 3 2 1 0 359 359 358 358
250 267 163 186 172 179 192 195 176 133 117 134 142 172 5 18 14 10 18 20 13 18 48 59 40 42 61 78 84 112 152 174 176 171 174 177 177 179 182 185 187 191 204 220 237 242 240 268 334 342 342 352 2 6 7 6 7 9 9 9 9 10 12 12 12 12 11 10 10 10 9 9 9 8 6 6 6 6 5 4 3 2 1 1 360 359
238 199 177 214 216 200 205 199 193 195 116 132 168 177 46 20 359 351 359 11 2 19 37 28 26 66 84 71 69 124 168 176 181 180 183 183 181 185 191 195 196 197 205 217 231 229 217 245 305 332 338 348 359 5 6 6 7 8 8 9 9 11 12 13 13 12 11 10 10 10 10 10 10 9 8 8 8 8 7 6 5 4 3 2 1 1
236 213 178 219 220 205 209 208 205 215 213 192 219 149 90 9 341 348 349 355 13 28 38 28 24 38 39 39 50 161 184 185 192 193 193 192 191 196 202 207 205 201 206 216 225 225 226 245 274 316 334 346 356 3 5 5 6 6 8 9 10 11 12 13 13 12 11 10 10 10 10 10 10 10 9 9 9 9 8 7 6 5 5 3 2 2
233 224 187 226 233 201 201 220 217 214 219 235 275 256 263 298 299 338 344 350 4 17 25 17 19 34 30 29 29 310 210 198 199 201 203 200 200 204 207 209 209 205 208 220 229 233 239 246 258 294 327 344 352 359 3 2 3 5 7 9 10 11 13 13 13 12 11 10 10 10 10 11 11 10 10 10 10 10 9 8 7 7 6 4 3 4
228 234 224 224 232 206 205 223 223 210 212 230 250 246 257 288 298 312 323 330 337 347 3 359 5 37 30 15 8 359 231 207 206 208 212 207 205 209 209 210 212 209 212 223 232 239 243 243 249 275 311 336 347 354 360 0 2 3 5 8 9 11 12 13 13 12 11 11 10 11 11 11 11 10 10 10 10 10 10 9 8 8 7 5 4 5
224 236 237 219 220 220 217 223 225 218 211 220 233 237 243 258 275 287 284 292 314 321 339 341 343 15 19 1 357 0 326 216 214 214 216 211 208 210 211 211 214 213 216 224 232 240 241 238 245 263 294 325 339 349 356 358 360 1 3 6 8 9 11 13 13 11 11 11 11 11 11 11 10 10 10 10 10 10 10 10 9 8 8 7 6 6
225 232 233 220 220 228 230 230 234 236 234 233 235 239 247 254 264 276 275 277 294 300 315 318 318 341 358 349 346 349 341 246 222 220 218 214 211 211 212 214 215 215 217 223 233 240 236 237 243 249 273 308 329 344 353 356 358 359 1 4 6 7 9 11 12 11 11 11 11 11 11 11 10 10 10 10 10 10 10 10 10 9 8 8 7 7
234 237 232 229 232 237 240 241 243 247 248 247 249 252 257 259 259 268 280 291 290 289 298 298 298 317 340 335 333 334 334 295 235 228 223 218 215 213 214 215 216 217 217 221 233 240 238 240 241 244 261 289 317 335 346 352 355 357 0 2 5 7 9 11 11 11 10 11 10 10 11 10 10 10 10 10 10 10 10 10 10 9 9 9 9 9
235 239 235 237 239 238 242 243 243 246 246 246 248 249 253 256 257 265 277 288 288 284 285 285 292 308 323 324 323 320 327 316 260 241 230 223 218 214 214 217 218 218 217 219 228 237 240 241 241 246 255 271 303 324 339 348 352 356 358 360 3 7 9 10 10 10 10 11 10 10 10 10 10 10 10 10 10 9 9 10 9 9 9 9 10 10
229 237 236 240 242 239 243 243 238 239 242 247 250 246 247 250 253 261 270 273 274 277 280 280 288 302 308 311 309 298 305 307 277 259 245 233 224 217 217 218 218 217 217 217 221 228 234 239 242 248 251 262 290 315 331 342 349 354 357 358 1 5 7 9 9 9 9 10 10 10 10 10 9 10 9 9 9 9 9 9 10 10 10 10 11 11
231 238 235 239 244 245 250 249 244 245 243 245 249 245 244 246 245 252 264 265 264 271 273 269 278 295 299 293 293 286 279 279 274 267 257 245 231 222 219 218 217 218 218 215 217 226 234 240 244 247 248 258 279 304 325 336 345 352 354 357 0 4 6 8 8 8 8 9 9 10 10 10 10 10 9 9 9 9 9 10 10 11 11 11 11 12
237 241 238 243 249 255 266 268 264 261 252 248 249 245 245 246 243 247 259 264 266 271 270 266 273 285 290 288 286 278 270 271 270 262 258 252 238 227 220 216 216 219 219 218 222 229 234 239 242 244 246 255 271 293 318 330 340 348 352 355 359 2 5 7 7 7 8 8 9 9 10 10 10 10 9 9 9 9 10 10 11 12 12 12 12 13
238 241 240 244 249 258 269 266 260 259 257 258 258 251 247 246 243 245 251 260 267 270 272 275 275 276 284 291 289 278 269 272 270 258 255 255 245 233 222 215 216 218 219 221 225 228 230 235 241 244 246 253 263 282 309 323 334 344 348 352 357 1 4 5 6 6 7 7 8 9 9 9 10 10 9 9 9 10 10 11 12 13 13 13 13 14
240 242 240 243 248 256 261 258 256 256 258 262 262 257 251 247 244 246 251 256 260 263 270 281 280 274 279 286 288 282 270 269 269 261 257 255 245 234 224 218 218 219 220 221 225 227 230 235 242 245 247 250 256 270 295 312 327 339 344 349 354 358 2 4 4 5 6 7 8 8 9 9 10 10 9 9 10 10 11 12 13 14 14 15 15 16
241 241 239 243 248 252 254 255 255 255 258 260 259 256 254 250 248 250 254 257 258 260 266 273 275 273 275 279 282 281 272 273 277 269 262 256 245 234 226 222 222 221 220 222 225 228 233 238 243 245 246 248 252 261 282 302 318 331 340 346 350 355 359 2 3 4 5 6 7 8 9 9 10 10 9 10 10 11 12 13 14 15 15 16 16 17
237 239 240 243 247 248 249 251 252 254 258 259 258 257 257 256 255 255 257 258 258 260 264 266 269 272 273 273 274 273 268 269 271 267 265 262 250 236 228 226 225 223 220 221 224 229 235 240 244 245 246 246 247 254 273 291 309 324 334 341 346 351 356 359 2 4 4 5 6 7 8 9 10 10 10 10 11 11 12 14 15 16 16 16 17 17
232 237 238 240 245 246 243 246 250 252 258 261 260 260 260 260 260 258 258 259 259 260 263 263 265 270 271 268 267 267 263 260 261 262 265 266 256 243 234 228 225 223 221 221 224 229 235 240 243 244 244 243 243 249 265 282 300 317 328 336 342 348 353 357 1 3 3 5 5 6 8 8 9 10 10 10 11 12 13 14 16 16 16 17 17 18
230 233 235 237 245 247 240 244 250 250 258 263 262 261 262 260 259 259 260 261 260 260 261 262 264 270 272 268 267 264 258 258 261 263 265 265 256 247 240 231 224 222 222 222 224 229 234 239 242 243 242 241 241 245 257 273 291 309 321 331 338 346 352 356 359 1 2 3 4 6 7 8 9 10 10 10 11 11 13 14 16 16 16 17 17 18
229 234 236 236 244 246 238 240 248 251 258 265 265 266 267 264 261 262 264 264 262 259 260 263 267 269 270 271 271 266 260 263 268 268 269 267 257 249 242 234 227 222 220 222 224 226 232 237 240 241 240 239 238 240 250 266 285 303 315 327 335 343 349 353 357 359 1 2 3 5 6 7 9 9 9 10 11 11 13 14 15 16 16 16 17 18
229 233 235 236 242 244 237 239 249 256 259 262 263 267 270 269 267 268 270 268 264 260 259 263 267 268 267 266 266 267 268 272 275 274 272 268 260 251 241 233 227 221 218 220 223 225 230 234 236 237 235 234 233 236 246 261 278 296 310 321 331 339 345 350 354 357 359 1 2 3 5 7 8 8 9 10 10 12 13 14 14 15 16 16 17 19
230 231 233 236 240 241 240 243 250 260 263 258 259 266 268 267 266 269 272 268 262 260 261 263 266 266 262 257 258 265 269 271 274 275 271 266 259 251 240 231 225 220 219 222 222 224 228 231 230 230 231 231 232 235 243 256 271 290 305 317 327 335 341 347 351 355 358 0 1 3 4 6 7 8 8 9 10 12 13 14 14 15 16 17 18 19
231 231 231 234 237 239 244 247 249 260 263 257 259 265 265 265 267 270 274 270 263 263 264 263 264 262 257 255 258 262 265 268 272 271 264 258 253 247 241 232 224 221 222 222 220 221 226 229 228 227 228 229 231 234 242 253 266 284 300 312 321 330 338 344 348 352 356 359 0 2 3 4 6 7 8 8 10 12 13 14 14 14 15 17 19 20
231 232 231 234 236 238 244 247 248 254 258 254 255 259 260 269 274 274 277 273 263 260 261 261 263 260 255 255 257 256 259 268 272 267 256 252 248 242 241 236 228 224 222 220 218 219 224 226 224 224 225 226 229 234 240 249 262 279 295 307 316 325 335 341 345 350 354 357 359 1 2 4 5 6 7 8 10 11 13 13 13 14 15 17 19 20
231 232 232 234 235 233 237 245 247 250 253 252 252 254 258 267 269 271 278 274 259 255 260 259 260 259 255 255 254 252 257 266 272 268 257 250 243 237 237 236 230 226 222 219 217 216 220 222 220 220 222 225 228 232 237 245 258 275 290 301 310 321 331 337 342 348 353 356 359 360 1 3 4 6 6 7 10 11 12 12 13 14 15 17 19 21
229 231 231 232 233 230 234 242 246 248 251 251 251 255 261 264 261 265 273 271 257 258 262 259 259 259 256 254 252 252 259 267 272 271 263 251 239 234 234 232 227 224 221 218 216 215 215 216 216 218 221 224 227 230 233 243 257 271 285 297 305 317 327 333 340 347 352 356 358 359 0 2 3 5 6 7 10 10 11 11 12 13 16 18 19 20
227 228 229 231 233 231 233 240 245 247 248 248 249 254 256 257 258 262 268 268 263 265 264 260 261 259 251 249 251 255 261 269 272 270 263 247 234 231 231 228 223 220 217 213 210 210 213 216 217 218 221 224 226 228 234 244 255 267 280 292 301 312 323 331 340 346 350 354 356 358 360 1 2 4 5 7 9 10 10 11 11 13 16 18 19 20
227 226 228 230 233 233 235 239 244 246 245 244 247 252 252 255 261 264 265 266 267 267 264 260 260 256 247 245 252 258 261 263 268 269 257 241 230 226 224 222 218 216 211 206 204 207 213 217 219 220 222 225 226 229 236 244 250 262 275 286 295 307 319 330 338 344 348 352 355 357 358 359 0 2 5 7 8 9 10 10 11 12 15 17 19 20
230 229 229 230 230 232 236 238 241 246 245 238 241 251 253 256 265 268 264 262 264 264 262 260 257 253 246 244 250 257 258 258 266 267 252 238 229 222 219 218 215 212 208 206 208 210 213 215 217 219 222 225 227 231 237 240 245 258 270 278 288 300 315 328 334 339 345 349 353 355 356 357 360 2 4 6 7 8 9 9 10 11 13 15 17 18
233 231 233 233 230 231 236 238 241 248 246 235 240 251 252 252 260 267 262 259 259 259 260 260 255 250 247 246 246 250 254 258 262 259 246 235 227 220 218 217 215 211 209 208 209 210 212 213 215 217 221 224 228 233 236 238 244 254 262 269 280 294 310 322 328 335 343 347 350 352 353 356 360 2 3 5 6 6 7 8 8 10 11 13 14 16
233 231 236 240 235 234 240 243 244 248 245 238 244 254 253 248 251 258 260 261 261 259 258 258 253 246 246 248 247 248 254 256 255 252 245 235 227 221 218 217 215 212 210 211 211 212 213 215 214 214 218 223 228 232 235 239 243 247 252 262 274 287 302 313 323 333 340 343 346 348 351 356 360 1 2 2 3 4 5 6 7 8 9 11 12 14
237 235 236 241 240 238 241 243 243 245 245 242 245 250 250 248 249 251 255 260 262 260 257 256 251 244 243 246 247 249 253 252 248 247 244 236 228 221 218 217 215 213 212 213 214 216 217 217 215 214 217 222 227 231 235 239 241 244 250 259 269 282 295 307 319 330 336 339 342 345 350 356 358 359 360 1 2 3 3 4 5 6 8 9 10 12
238 234 233 237 239 238 240 240 239 243 245 244 244 245 246 248 249 249 252 256 260 258 254 252 250 244 243 245 247 248 250 247 243 242 239 235 229 221 217 216 215 215 216 215 215 217 219 218 217 216 218 221 226 230 233 236 239 244 251 260 268 278 290 302 315 326 332 334 337 342 348 353 355 356 358 358 360 1 2 3 3 3 5 6 8 10
235 230 231 235 237 238 241 240 239 241 244 243 243 245 246 246 247 248 250 253 255 254 249 246 246 244 243 245 246 246 245 243 240 237 235 234 230 222 218 217 216 218 219 218 217 219 221 220 219 218 220 224 227 229 231 234 239 244 251 260 267 275 286 298 311 321 326 329 333 339 344 348 350 352 354 355 358 359 0 1 2 2 3 3 4 6
230 226 228 234 237 238 240 239 238 240 243 242 243 245 247 246 245 245 247 248 249 248 244 242 243 244 245 246 246 244 241 240 239 236 233 232 229 222 219 218 219 220 220 220 220 223 224 224 222 221 223 226 228 229 231 235 240 245 250 257 264 272 282 294 305 315 319 322 327 333 338 342 345 348 350 353 356 358 358 359 0 1 2 3 4 5
228 227 229 233 236 238 238 237 237 240 243 244 244 245 245 244 243 242 242 243 243 241 238 238 240 243 244 244 243 240 238 238 237 235 233 233 229 223 219 218 220 221 221 221 223 226 227 227 224 223 224 227 229 231 233 237 242 246 250 257 263 270 279 289 299 306 311 315 319 326 331 336 340 343 346 350 354 356 358 0 1 1 2 2 4 7
231 233 234 234 237 241 242 241 241 243 245 247 248 247 244 241 239 238 237 238 238 237 235 235 236 237 239 239 239 239 238 238 235 233 235 235 231 225 221 219 220 222 223 224 225 227 228 227 226 225 226 228 231 233 236 240 243 246 250 256 262 268 275 283 293 299 304 308 312 318 324 329 333 337 340 344 348 350 353 356 359 1 2 2 2 5